Погода в Тройсдорфе

Германия     50°48′41″N   7°08′29″E
темп.,
°C
ветер,
м/с
пор.,
м/с
влажн.,
%
обл.,
%
осадки,
мм/ч
давл.,
гПа
погр.,
м
8 мая, сб
сб823:00+4ююз22750 0.0 102029
02:00+2ююв1178100 0.0 102018
05:00+2юв2277100 0.0 101945
08:00+6юв3665100 0.0 1018205
11:00+12ююв4747100 0.0 10171160
14:00+15ю5847100 0.0 10141785
17:00+10ююв31092100 1.3 1013406
20:00+11юв399173 1.4 1012262
9 мая, вс
вс923:00+9юв389624 0.0 1011146
02:00+9юв379722 0.0 1010140
05:00+8вюв379796 0.0 1008140
08:00+11юв4128990 0.0 1007293
11:00+19ююв6125765 0.0 1006772
14:00+24ю71246100 0.0 10041272
17:00+24ю51048100 0.0 10041524
20:00+21ю61356100 0.0 10031019
10 мая, пн
пн1023:00+19ю31150100 0.0 1004514
02:00+16ю1463100 0.0 1004133
05:00+14юв2375100 0.0 100353
08:00+13ююв41295100 1.9 1004729
11:00+14зюз4109142 1.1 1006640
14:00+17зюз3559100 1.3 10081131
17:00+17юз3555100 0.0 10091112
20:00+15юв2470100 0.0 1009160
11 мая, вт
вт1123:00+12ююв2489100 0.3 1010116
02:00+11ююв2496100 2.6 1010115
05:00+10юв2296100 0.6 101050
08:00+11в1296100 0.7 101088
11:00+12вюв1493100 0.6 1009236
14:00+16ююв1270100 0.9 1008858
17:00+13юв1191100 1.3 100829
20:00+12ююв0193100 2.4 100912
12 мая, ср
ср1223:00+11зсз3699100 0.1 1010355
02:00+11з3899100 0.1 1010498
05:00+10з4998100 0.2 1010578
08:00+10зсз4997100 0.6 1012634
11:00+10зсз3890100 0.0 1013568
14:00+14зсз466499 0.4 10121259
17:00+14з246799 0.2 1012497
20:00+13зсз2471100 0.3 1012211